#timestamp,LO_Frequency,Hit,StdDev 
1505966415.8,286047000.3,N
1505966435.6,286047000.7,N
1505966455.5,286046999.9,N
1505966475.3,286047000.2,N
1505966495.1,286047002.4,N
1505966515.9,286047002.2,N
1505966535.7,286047000.5,N
1505966555.6,286047000.4,N
1505966575.4,286047000.6,N
1505966595.2,286047000.5,N
1505966615.1,286046999.7,N
1505966616.0,286046999.7,N
1505966635.8,286047002.5,N
1505966655.6,286047002.4,N
1505966675.5,286047001.6,N
1505966695.3,286047004.0,Y
1505966715.2,286047002.4,P
1505966735.9,286046999.7,N
1505966755.7,286047002.8,N
1505966775.6,286046999.8,N
1505966795.4,286047000.1,N
1505966815.3,286047000.0,N
1505966835.1,286047000.4,N
1505966836.0,286047000.4,N
1505966855.8,286047001.1,N
1505966875.7,286047000.8,N
1505966895.5,286047000.3,N
1505966915.3,286047000.7,N
1505966935.2,286046998.8,N
1505966955.0,286046998.5,N
1505966955.9,286046998.5,N
1505966975.8,286046999.4,N
1505966995.6,286046998.9,N
1505967015.4,286047000.5,N
1505967065.3,286046998.2,E
1505967075.2,286047002.3,N
1505967095.1,286047002.3,P
1505967096.0,286047002.3,P
1505967115.8,286046999.8,Y
1505967135.6,286046997.0,P
1505967155.5,286046998.5,N
1505967175.3,286046998.1,N
1505967195.2,286046998.2,N
1505967215.9,286046999.2,N
1505967235.7,286046996.7,N
1505967255.6,286046996.8,N
1505967275.4,286046997.4,N
1505967295.2,286046997.0,N
1505967315.1,286046997.6,N
1505967316.0,286046997.6,N
1505967335.1,286046996.7,N
1505967336.0,286046996.7,N
1505967355.8,286046996.7,N
1505967375.7,286046999.5,N
1505967395.5,286046998.8,N
1505967415.3,286046999.5,N
1505967435.2,286046999.4,N
1505967455.0,286046999.3,N
1505967455.9,286046999.3,N
1505967475.8,286046998.7,N
1505967495.6,286046998.3,N
1505967515.4,286046999.1,N
1505967535.3,286046999.5,N
1505967555.1,286046997.2,N
1505967575.8,286046997.1,N
1505967595.7,286046998.7,N
1505967615.5,286046996.8,N
1505967635.4,286046996.5,N
1505967655.2,286046999.5,N
1505967675.0,286046997.4,N
1505967675.9,286046997.4,N
1505967695.8,286046997.0,N
1505967715.6,286046999.4,N
1505967735.4,286046999.2,N
1505967755.3,286046998.0,N
1505967775.1,286046995.2,Y
1505967795.9,286046999.2,P
1505967815.7,286046996.9,P
1505967835.5,286046999.4,N
1505967855.4,286046998.4,N
1505967875.2,286046998.7,N
1505967895.1,286046998.5,N
1505967896.0,286046998.5,N
1505967915.8,286046999.0,N
1505967935.6,286046996.6,Y
1505967955.5,286047000.9,P
1505967975.3,286047000.7,N
1505967995.2,286046998.6,N
1505968015.9,286046999.0,N
1505968035.7,286046998.9,N
1505968055.6,286046998.9,N
1505968075.4,286047000.8,N
1505968095.2,286046999.3,N
1505968115.1,286046996.9,Y
1505968116.0,286046996.9,P
1505968135.8,286046999.5,N
1505968155.7,286046999.6,N
1505968175.5,286046999.2,N
1505968195.3,286046999.5,N
1505968215.2,286046999.2,N
1505968235.0,286046998.4,N
1505968235.9,286046998.4,N
1505968255.8,286046999.1,N
1505968275.6,286046999.2,N
1505968295.4,286046999.6,N
1505968315.3,286046999.5,N
1505968335.1,286046999.6,N
1505968355.9,286046999.5,N
1505968375.7,286046999.4,N
1505968395.5,286046999.0,N
1505968415.4,286046999.1,N
1505968435.2,286046998.4,N
1505968455.0,286046998.6,N
1505968455.9,286046998.6,N
1505968475.8,286046998.9,N
1505968495.6,286046998.9,N
1505968515.5,286046999.4,N
1505968535.3,286046999.2,N
1505968555.1,286046999.5,N
1505968575.9,286046999.2,N
1505968595.7,286046998.9,N
1505968615.6,286046998.8,N
1505968635.4,286046998.6,N
1505968655.2,286046996.9,Y
1505968675.1,286046998.4,P
1505968676.0,286046998.4,P
1505968695.8,286046996.5,P
1505968715.7,286046996.7,Y
1505968735.5,286047002.4,P
1505968755.3,286047000.0,N
1505968775.2,286046999.9,N
1505968795.0,286047000.1,N
1505968795.9,286047000.1,N
1505968815.7,286047002.3,N
1505968835.6,286047001.6,N
1505968855.4,286047002.0,N
1505968875.3,286047002.3,N
1505968895.1,286047002.4,N
1505968896.0,286047002.4,N
1505968915.8,286047002.8,N
1505968935.7,286047002.3,N
1505968955.5,286046999.9,N
1505968975.4,286047001.0,N
1505968995.2,286047000.4,N
1505969015.0,286046999.9,N
1505969015.9,286046999.9,N
1505969035.8,286046999.8,N
1505969055.6,286046998.4,N
1505969075.4,286046998.9,N
1505969095.3,286046999.2,N
1505969115.1,286046998.4,N
1505969135.9,286046998.2,N
1505969155.7,286046998.4,N
1505969175.5,286046999.0,N
1505969195.4,286046998.5,N
1505969215.2,286046998.5,N
1505969235.1,286046998.8,N
1505969236.0,286046998.8,N
1505969255.8,286047001.1,N
1505969275.6,286046998.2,N
1505969295.5,286046998.7,N
1505969315.3,286046998.6,N
1505969335.1,286046998.5,N
1505969355.9,286046999.3,N
1505969375.7,286046999.3,N
1505969395.6,286047001.0,N
1505969415.4,286046998.4,N
1505969435.2,286046998.1,N
1505969455.1,286046998.6,N
1505969456.0,286046998.6,N
1505969475.8,286046998.9,N
1505969495.7,286046998.5,N
1505969515.5,286046998.3,N
1505969535.3,286046999.0,N
1505969555.2,286047000.8,N
1505969575.0,286047000.4,N
1505969575.9,286047000.4,N
1505969595.7,286047000.8,N
1505969615.6,286046998.1,N
1505969635.4,286047000.9,N
1505969655.3,286047002.3,N
1505969675.1,286047002.8,N
1505969676.0,286047002.8,N
1505969695.8,286047000.4,N
1505969715.7,286047000.9,N
1505969735.5,286047001.2,N
1505969755.4,286047000.8,N
1505969775.2,286046998.2,N
1505969795.0,286047001.0,N
1505969795.9,286047001.0,N
1505969815.8,286047001.2,N
1505969835.6,286047000.6,N
1505969855.4,286047002.7,N
1505969875.3,286047002.6,N
1505969895.1,286047002.3,N
1505969915.9,286047002.2,N
1505969935.7,286047002.7,N
1505969955.5,286047001.6,N
1505969975.4,286046999.8,N
1505969995.2,286046999.7,N
